Overview Statistics Trail Chart Weather Telemetry Raw packets
 

This is the latest recevied weather packets stored in our database for station/object KC4JIR. If no packets are shown the sender has not sent any weather packets the latest 10 day(s).

<< 1 2 3 4 5 6 >>
Time Temp. Humidity Pressure Rain* Wind** Luminosity Snow
1788615249 25° C 99% 1012.4 hPa 0 mm - 121 W/m² -
1788614949 25° C 99% 1012.6 hPa 0 mm - 101 W/m² -
1788614644 25° C 99% 1012.9 hPa 0 mm - 116 W/m² -
1788614339 25° C 99% 1012.9 hPa 0 mm - 68 W/m² -
1788614035 25° C 99% 1012.8 hPa 0 mm - 70 W/m² -
1788613730 25° C 99% 1012.7 hPa 0 mm - 94 W/m² -
1788613428 25° C 99% 1012.6 hPa 0 mm - 177 W/m² -
1788613124 25° C 99% 1012.6 hPa 0 mm - 130 W/m² -
1788612818 25° C 99% 1012.9 hPa 0 mm - 95 W/m² -
1788612514 25° C 99% 1012.9 hPa 0 mm - 75 W/m² -
1788612211 25° C 99% 1012.6 hPa 0 mm - 53 W/m² -
1788611910 25° C 99% 1012.4 hPa 0 mm - 65 W/m² -
1788611608 25° C 99% 1012.5 hPa 0 mm - 69 W/m² -
1788611307 25° C 99% 1012.6 hPa 0 mm - 52 W/m² -
1788611006 25° C 99% 1012.5 hPa 0 mm - 92 W/m² -
1788610702 24.44° C 99% 1012.4 hPa 0 mm - 66 W/m² -
1788610399 24.44° C 99% 1012.4 hPa 0 mm - 44 W/m² -
1788610097 24.44° C 99% 1012 hPa 0 mm - 42 W/m² -
1788609791 24.44° C 99% 1012.2 hPa 0 mm - 37 W/m² -
1788609487 23.89° C 99% 1012.1 hPa 0 mm - 35 W/m² -
1788609186 23.89° C 99% 1012.1 hPa 0 mm - 33 W/m² -
1788608886 23.89° C 99% 1012.1 hPa 0 mm - 29 W/m² -
1788608585 23.89° C 99% 1011.9 hPa 0 mm - 22 W/m² -
1788608279 23.89° C 99% 1011.8 hPa 0 mm - 16 W/m² -
1788607975 23.89° C 99% 1011.8 hPa 0 mm - 12 W/m² -

* Rain latest hour (hover to see other rain measurements)
** Current wind speed in m/s (hover to see current wind gust speed)